sat.trackr.live / text

‹ back to catalog

LEMUR-2-ELEONORE

NORAD 69940 · 2026-156BZ

PAYLOAD ACTIVE UNKNOWN

§ Identity

Operator
Country
GER
Launch date
2026-07-07
Launch site
AFWTR
Launch vehicle
Mass (kg)
RCS (m²)

External: N2YO · Heavens-Above · Gunter

§ Orbital elements

Epoch: 2026-09-19T22:52:54.725088Z

Period
96.47 min
Inclination
97.7471°
Eccentricity
0.0008722
Mean motion
14.92721063 rev/d
Perigee alt
583.4 km
Apogee alt
595.5 km
Semi-major
6,967.6 km
B*
7.7785e-5
RAAN
162.2756°
Arg perigee
269.6614°
Mean anomaly
90.3606°
Rev number
1,113

§ Raw data

LEMUR-2-ELEONORE1 69940U 26156BZ  26262.95341117  .00000747  00000+0  77785-4 0  99922 69940  97.7471 162.2756 0008722 269.6614  90.3606 14.92721063 11132

JSON: /api/v1/satellites/69940 · /tle

For live sub-satellite position, see the globe view (requires WebGL).

§ Visibility from observer

Set your observer location to see the next 7 days of passes ≥ 10°. The values pass through the URL so the page stays shareable.

No JS? Fill the form by hand. The geolocation button needs JavaScript.